Valentine, NE

2:29 AM CDT on October 01, 2016 (GMT -0500)
Miller Field

Weather History for KVTN - December, 2013

Change the Weather History Date:

Tuesday, December 24, 2013

  Actual Average Record
Temperature  
Mean Temperature 25 °F 23 °F  
Max Temperature 37 °F 36 °F 59 °F (1936)
Min Temperature 13 °F 10 °F -25 °F (1983)
Degree Days  
Heating Degree Days 40 42  
Month to date heating degree days 1174 981  
Since 1 July heating degree days 2733 2599  
Cooling Degree Days 0 0  
Month to date cooling degree days 0 0  
Year to date cooling degree days 964 821  
Moisture  
Dew Point 25 °F    
Average Humidity 77    
Maximum Humidity 85    
Minimum Humidity 68    
Precipitation  
Precipitation 0.02 in 0.01 in 0.60 in (1893)
Month to date precipitation 0.71 0.29  
Year to date precipitation 23.63 19.94  
Snow  
Snow 0.20 in 0.20 in 6.30 in (1948)
Month to date snowfall 12.2 4.0  
Since 1 July snowfall 19.0 11.6  
Snow Depth 1.00 in    
Sea Level Pressure  
Sea Level Pressure 30.10 in    
Wind  
Wind Speed 13 mph (WNW)    
Max Wind Speed 23 mph    
Max Gust Speed 31 mph    
Visibility 8 miles    
Events Snow    
T = Trace of Precipitation, MM = Missing Value Source: NWS Daily Summary

Daily Weather History Graph

Daily Weather History Graph

Search for Another Location

Airport or City:

Trip Planner

Search our weather history database for the weather conditions in past years. The results will help you decide how hot, cold, wet, or windy it might be!

Date:

Astronomy

Dec. 24, 2013 Rise Set
Actual Time 8:11 AM CST 5:12 PM CST
Civil Twilight 7:38 AM CST 5:45 PM CST
Nautical Twilight 7:03 AM CST 6:20 PM CST
Astronomical Twilight 6:28 AM CST 6:55 PM CST
Moon No Moon Rise 11:56 AM CST (12/24)
Length of Visible Light 10h 06m
Length of Day
9h 01m
Waning Gibbous, 58% of the Moon is Illuminated
Dec 24
Waning Gibbous
Dec 25
Last Quarter
Jan 1
New
Jan 7
First Quarter
Jan 15
Full

Hourly Weather History & Observations

Time (CST) Temp. Windchill Dew Point Humidity Pressure Visibility Wind Dir Wind Speed Gust Speed Precip Events Conditions
12:52 AM 12.9 °F -1.6 °F 7.0 °F 77% 30.25 in 10.0 mi South 12.7 mph - N/A   Overcast
1:52 AM 15.1 °F 1.1 °F 8.1 °F 74% 30.19 in 10.0 mi South 12.7 mph 18.4 mph N/A   Overcast
2:52 AM 15.1 °F -0.1 °F 8.1 °F 74% 30.16 in 10.0 mi South 15.0 mph - N/A   Partly Cloudy
3:52 AM 15.1 °F 1.1 °F 9.0 °F 77% 30.12 in 10.0 mi South 12.7 mph - N/A   Clear
4:52 AM 17.1 °F 5.8 °F 10.9 °F 77% 30.09 in 10.0 mi SSW 9.2 mph - N/A   Scattered Clouds
5:52 AM 19.9 °F 14.9 °F 12.9 °F 74% 30.04 in 10.0 mi South 3.5 mph - N/A   Overcast
6:52 AM 24.1 °F 13.1 °F 16.0 °F 71% 30.02 in 10.0 mi SSW 11.5 mph - N/A   Overcast
7:52 AM 28.0 °F 18.1 °F 19.9 °F 72% 29.99 in 10.0 mi SW 11.5 mph - N/A   Overcast
8:52 AM 27.0 °F 20.5 °F 19.9 °F 75% 29.99 in 10.0 mi SW 5.8 mph - N/A   Mostly Cloudy
9:52 AM 32.0 °F 24.2 °F 24.1 °F 73% 30.00 in 10.0 mi West 9.2 mph - N/A   Clear
10:52 AM 35.1 °F 23.8 °F 28.9 °F 78% 30.02 in 10.0 mi NW 20.7 mph 28.8 mph N/A   Overcast
11:06 AM 33.8 °F 21.9 °F 28.4 °F 81% 29.94 in 9.0 mi NW 21.9 mph 28.8 mph N/A   Overcast
11:26 AM 33.8 °F 22.8 °F 30.2 °F 87% 29.94 in 1.8 mi NW 18.4 mph 26.5 mph 0.00 in Snow Light Snow
11:35 AM 33.8 °F 23.5 °F 30.2 °F 87% 29.94 in 0.8 mi NW 16.1 mph 24.2 mph 0.00 in Snow Light Snow
11:43 AM 33.8 °F 23.5 °F 30.2 °F 87% 29.95 in 0.8 mi NW 16.1 mph 23.0 mph 0.01 in Snow Light Snow
11:48 AM 33.8 °F 23.5 °F 30.2 °F 87% 29.94 in 1.2 mi NW 16.1 mph 21.9 mph 0.02 in Snow Light Snow
11:52 AM 33.1 °F 22.6 °F 30.0 °F 89% 30.05 in 2.5 mi NW 16.1 mph 21.9 mph 0.02 in Snow Light Snow
11:57 AM 33.8 °F 24.3 °F 30.2 °F 87% 29.95 in 4.0 mi NW 13.8 mph - 0.00 in Snow Light Snow
12:47 PM 35.6 °F 24.8 °F 30.2 °F 81% 29.96 in 5.0 mi NW 19.6 mph 25.3 mph 0.00 in Snow Light Snow
12:52 PM 35.1 °F 24.8 °F 30.9 °F 85% 30.06 in 4.0 mi NW 17.3 mph 27.6 mph 0.00 in Snow Light Snow
1:34 PM 33.8 °F 22.8 °F 30.2 °F 87% 29.96 in 5.0 mi NNW 18.4 mph 26.5 mph 0.00 in   Overcast
1:47 PM 33.8 °F 23.9 °F 30.2 °F 87% 29.97 in 5.0 mi NNW 15.0 mph 25.3 mph 0.00 in   Overcast
1:52 PM 34.0 °F 25.0 °F 30.9 °F 89% 30.07 in 6.0 mi NNW 12.7 mph 25.3 mph 0.00 in   Overcast
2:34 PM 35.6 °F 25.9 °F 30.2 °F 81% 30.00 in 10.0 mi NNW 16.1 mph 25.3 mph N/A   Overcast
2:52 PM 35.1 °F 25.2 °F 30.9 °F 85% 30.12 in 10.0 mi NW 16.1 mph 21.9 mph N/A   Overcast
3:52 PM 35.1 °F 24.8 °F 30.0 °F 82% 30.17 in 10.0 mi NNW 17.3 mph 23.0 mph N/A   Overcast
4:02 PM 35.6 °F 25.5 °F 30.2 °F 81% 30.07 in 10.0 mi NNW 17.3 mph 21.9 mph N/A   Overcast
4:52 PM 35.1 °F 24.8 °F 30.0 °F 82% 30.19 in 10.0 mi NNW 17.3 mph 24.2 mph N/A   Overcast
5:38 PM 33.8 °F 22.8 °F 28.4 °F 81% 30.14 in 10.0 mi NNW 18.4 mph 25.3 mph N/A   Scattered Clouds
5:52 PM 33.1 °F 23.9 °F 28.0 °F 82% 30.24 in 10.0 mi NW 12.7 mph 24.2 mph N/A   Scattered Clouds
6:04 PM 33.8 °F 24.8 °F 28.4 °F 81% 30.15 in 10.0 mi NW 12.7 mph - N/A   Mostly Cloudy
6:52 PM 33.1 °F 23.0 °F 27.0 °F 78% 30.25 in 10.0 mi NW 15.0 mph 20.7 mph N/A   Overcast
7:48 PM 32.0 °F 22.1 °F 26.6 °F 80% 30.18 in 10.0 mi NW 13.8 mph 20.7 mph N/A   Scattered Clouds
7:52 PM 30.9 °F 20.2 °F 26.1 °F 82% 30.27 in 10.0 mi NW 15.0 mph 20.7 mph N/A   Partly Cloudy
8:52 PM 28.9 °F 22.8 °F 25.0 °F 85% 30.27 in 10.0 mi West 5.8 mph - N/A   Clear
9:52 PM 28.0 °F 18.6 °F 25.0 °F 88% 30.26 in 10.0 mi WNW 10.4 mph - N/A   Clear
10:52 PM 26.1 °F 16.8 °F 23.0 °F 88% 30.25 in 10.0 mi West 9.2 mph - N/A   Clear
11:52 PM 27.0 °F 17.3 °F 23.0 °F 85% 30.26 in 10.0 mi West 10.4 mph - N/A   Overcast